| time (UTC) | temp F | wind direction | speed MPH | gust MPH | rain 1hr in | rain 24hr in | rain mn in | humidity % | barometer mb |
| 20260504190815 | 72 | 175 | 2.0 | 7.0 | 0.00 | 0.00 | 0.00 | 42 | 1011.7 |
| 20260504185822 | 71 | 161 | 3.0 | 11.0 | 0.00 | 0.00 | 0.00 | 42 | 1011.9 |
| 20260504184817 | 71 | 169 | 5.0 | 11.0 | 0.00 | 0.00 | 0.00 | 43 | 1012.0 |
| 20260504183846 | 71 | 116 | 4.0 | 10.0 | 0.00 | 0.00 | 0.00 | 44 | 1012.1 |
| 20260504182818 | 71 | 188 | 3.0 | 9.0 | 0.00 | 0.00 | 0.00 | 44 | 1012.2 |
| 20260504181816 | 71 | 216 | 3.0 | 8.0 | 0.00 | 0.00 | 0.00 | 43 | 1012.3 |
| 20260504180826 | 70 | 201 | 4.0 | 8.0 | 0.00 | 0.00 | 0.00 | 46 | 1012.3 |
| 20260504175831 | 70 | 186 | 3.0 | 9.0 | 0.00 | 0.00 | 0.00 | 44 | 1012.4 |
| 20260504174823 | 69 | 173 | 4.0 | 7.0 | 0.00 | 0.00 | 0.00 | 45 | 1012.5 |
| 20260504173835 | 69 | 191 | 3.0 | 7.0 | 0.00 | 0.00 | 0.00 | 47 | 1012.6 |
| 20260504172821 | 68 | 173 | 4.0 | 8.0 | 0.00 | 0.00 | 0.00 | 46 | 1012.7 |
| 20260504171835 | 68 | 194 | 3.0 | 10.0 | 0.00 | 0.00 | 0.00 | 45 | 1012.8 |
| 20260504170839 | 68 | 222 | 3.0 | 6.0 | 0.00 | 0.00 | 0.00 | 44 | 1013.0 |
| 20260504150817 | 63 | 123 | 2.0 | 8.0 | 0.00 | 0.00 | 0.00 | 48 | 1014.3 |
| 20260504140819 | 58 | 181 | 1.0 | 5.0 | 0.00 | 0.00 | 0.00 | 58 | 1014.7 |
| 20260504130820 | 53 | 191 | 2.0 | 5.0 | 0.00 | 0.00 | 0.00 | 65 | 1014.9 |
| 20260504081818 | 45 | 360 | 0.0 | 0.0 | 0.00 | 0.00 | 0.00 | 69 | 1015.6 |
| 20260504080830 | 45 | 360 | 0.0 | 0.0 | 0.00 | 0.00 | 0.00 | 68 | 1015.6 |
| 20260504045817 | 44 | 242 | 0.0 | 0.0 | 0.00 | 0.00 | 0.00 | 68 | 1016.0 |
| 20260504044828 | 44 | 242 | 0.0 | 0.0 | 0.00 | 0.00 | 0.00 | 67 | 1015.9 |
| 20260504043819 | 43 | 242 | 0.0 | 0.0 | 0.00 | 0.00 | 0.00 | 70 | 1015.9 |
| 20260504042830 | 43 | 242 | 0.0 | 0.0 | 0.00 | 0.00 | 0.00 | 71 | 1015.8 |
| 20260504041822 | 44 | 242 | 0.0 | 0.0 | 0.00 | 0.00 | 0.00 | 69 | 1015.9 |
| 20260504040814 | 44 | 242 | 0.0 | 0.0 | 0.00 | 0.00 | 0.00 | 68 | 1015.8 |
| 20260504035816 | 45 | 242 | 0.0 | 0.0 | 0.00 | 0.00 | 0.00 | 67 | 1015.7 |
| 20260504034827 | 45 | 242 | 0.0 | 0.0 | 0.00 | 0.00 | 0.00 | 67 | 1015.6 |
| 20260504033819 | 45 | 242 | 0.0 | 0.0 | 0.00 | 0.00 | 0.00 | 66 | 1015.6 |
| 20260504032830 | 46 | 242 | 0.0 | 0.0 | 0.00 | 0.00 | 0.00 | 64 | 1015.5 |
| 20260504031841 | 46 | 242 | 0.0 | 0.0 | 0.00 | 0.00 | 0.00 | 66 | 1015.4 |
| 20260504030852 | 47 | 242 | 0.0 | 0.0 | 0.00 | 0.00 | 0.00 | 65 | 1015.3 |
| 20260504025816 | 47 | 242 | 0.0 | 0.0 | 0.00 | 0.00 | 0.00 | 62 | 1015.3 |
| 20260504024827 | 48 | 242 | 0.0 | 0.0 | 0.00 | 0.00 | 0.00 | 60 | 1015.3 |
| 20260504023836 | 49 | 242 | 0.0 | 0.0 | 0.00 | 0.00 | 0.00 | 58 | 1015.3 |
| 20260504022827 | 49 | 242 | 0.0 | 0.0 | 0.00 | 0.00 | 0.00 | 56 | 1015.2 |
| 20260504021819 | 50 | 242 | 0.0 | 0.0 | 0.00 | 0.00 | 0.00 | 55 | 1015.3 |
| 20260504020814 | 50 | 242 | 0.0 | 0.0 | 0.00 | 0.00 | 0.00 | 55 | 1015.3 |
| 20260504015819 | 51 | 242 | 0.0 | 0.0 | 0.00 | 0.00 | 0.00 | 52 | 1015.2 |
| 20260504014831 | 51 | 242 | 0.0 | 0.0 | 0.00 | 0.00 | 0.00 | 52 | 1015.2 |
| 20260504013822 | 51 | 242 | 0.0 | 0.0 | 0.00 | 0.00 | 0.00 | 52 | 1015.2 |
| 20260504012836 | 51 | 242 | 0.0 | 0.0 | 0.00 | 0.00 | 0.00 | 51 | 1015.1 |
| 20260504011830 | 52 | 242 | 0.0 | 0.0 | 0.00 | 0.00 | 0.00 | 51 | 1014.9 |
| 20260504010842 | 52 | 242 | 0.0 | 0.0 | 0.00 | 0.00 | 0.00 | 52 | 1014.8 |
| 20260504005827 | 52 | 242 | 0.0 | 0.0 | 0.00 | 0.00 | 0.00 | 51 | 1014.8 |
| 20260504004818 | 53 | 242 | 0.0 | 0.0 | 0.00 | 0.00 | 0.00 | 50 | 1014.8 |
| 20260504003831 | 53 | 242 | 0.0 | 0.0 | 0.00 | 0.00 | 0.00 | 48 | 1014.7 |
| 20260504002814 | 54 | 242 | 0.0 | 0.0 | 0.00 | 0.00 | 0.00 | 48 | 1014.5 |
| 20260504001838 | 55 | 242 | 0.0 | 0.0 | 0.00 | 0.00 | 0.00 | 47 | 1014.4 |
| 20260504000828 | 55 | 242 | 0.0 | 0.0 | 0.00 | 0.00 | 0.00 | 46 | 1014.4 |
| 20260503235834 | 56 | 242 | 0.0 | 4.0 | 0.00 | 0.00 | 0.00 | 44 | 1014.3 |
| 20260503234827 | 56 | 360 | 0.0 | 3.0 | 0.00 | 0.00 | 0.00 | 44 | 1014.3 |
| 20260503233838 | 57 | 65 | 0.0 | 0.0 | 0.00 | 0.00 | 0.00 | 43 | 1014.1 |
| 20260503232822 | 57 | 65 | 0.0 | 4.0 | 0.00 | 0.00 | 0.00 | 41 | 1013.9 |
| 20260503231814 | 58 | 33 | 2.0 | 6.0 | 0.00 | 0.00 | 0.00 | 41 | 1013.9 |
| 20260503230824 | 58 | 47 | 3.0 | 6.0 | 0.00 | 0.00 | 0.00 | 41 | 1013.9 |
| 20260503225852 | 59 | 13 | 2.0 | 5.0 | 0.00 | 0.00 | 0.00 | 42 | 1014.0 |
| 20260503224813 | 59 | 169 | 3.0 | 7.0 | 0.00 | 0.00 | 0.00 | 42 | 1014.0 |
| 20260503223837 | 59 | 105 | 2.0 | 8.0 | 0.00 | 0.00 | 0.00 | 39 | 1014.0 |
| 20260503222818 | 59 | 350 | 2.0 | 8.0 | 0.00 | 0.00 | 0.00 | 41 | 1014.0 |
| 20260503221831 | 59 | 355 | 4.0 | 12.0 | 0.00 | 0.00 | 0.00 | 40 | 1014.0 |
| 20260503220823 | 60 | 130 | 3.0 | 10.0 | 0.00 | 0.00 | 0.00 | 38 | 1014.0 |
| 20260503215829 | 60 | 65 | 3.0 | 9.0 | 0.00 | 0.00 | 0.00 | 40 | 1014.1 |
| 20260503214822 | 60 | 13 | 3.0 | 12.0 | 0.00 | 0.00 | 0.00 | 41 | 1014.0 |
| 20260503213813 | 59 | 22 | 5.0 | 13.0 | 0.00 | 0.00 | 0.00 | 39 | 1014.0 |
| 20260503212827 | 59 | 46 | 6.0 | 13.0 | 0.00 | 0.00 | 0.00 | 41 | 1013.8 |
| 20260503211819 | 58 | 74 | 5.0 | 17.0 | 0.00 | 0.00 | 0.00 | 40 | 1013.8 |
| 20260503210831 | 58 | 11 | 5.0 | 16.0 | 0.00 | 0.00 | 0.00 | 39 | 1013.9 |
| 20260503205822 | 59 | 40 | 6.0 | 16.0 | 0.00 | 0.00 | 0.00 | 40 | 1014.0 |
| 20260503204837 | 59 | 24 | 5.0 | 14.0 | 0.00 | 0.00 | 0.00 | 40 | 1013.8 |
| 20260503203819 | 59 | 5 | 6.0 | 13.0 | 0.00 | 0.00 | 0.00 | 39 | 1013.9 |
| 20260503202830 | 58 | 57 | 7.0 | 22.0 | 0.00 | 0.00 | 0.00 | 39 | 1013.9 |
| 20260503201822 | 58 | 28 | 9.0 | 17.0 | 0.00 | 0.00 | 0.00 | 38 | 1014.0 |
| 20260503200814 | 58 | 48 | 4.0 | 10.0 | 0.00 | 0.00 | 0.00 | 39 | 1014.2 |
| 20260503195820 | 58 | 141 | 5.0 | 9.0 | 0.00 | 0.00 | 0.00 | 39 | 1014.2 |
| 20260503194832 | 58 | 165 | 4.0 | 11.0 | 0.00 | 0.00 | 0.00 | 39 | 1014.5 |
| 20260503193823 | 58 | 34 | 4.0 | 12.0 | 0.00 | 0.00 | 0.00 | 41 | 1014.5 |
| 20260503192815 | 58 | 18 | 6.0 | 11.0 | 0.00 | 0.00 | 0.00 | 43 | 1014.6 |
| 20260503191847 | 58 | 126 | 3.0 | 13.0 | 0.00 | 0.00 | 0.00 | 43 | 1014.6 |